Station 46076 (LLNR 25982) - CAPE CLEARE - 17 NM South of Montague Is, AK Image indicating link to RSS feed of recent meteorological observations for station 46076


Conditions at 46076 as of
(7:40 pm AKDT on 05/23/2024)
0340 GMT on 05/24/2024:
     

Click on the graph icon in the table below to see a time series plot of the last five days of that observation.

5-day plot - Wind Direction Wind Direction (WDIR):WSW ( 240 deg true )
5-day plot - Wind Speed Wind Speed (WSPD): 11.7 kts
5-day plot - Wind Gust Wind Gust (GST): 15.5 kts
5-day plot - Atmospheric Pressure Atmospheric Pressure (PRES):29.86 in
5-day plot - Air Temperature Air Temperature (ATMP): 46.8 °F
5-day plot - Water Temperature Water Temperature (WTMP): 46.8 °F
5-day plot - Dew Point Dew Point (DEWP): 43.5 °F
5-day plot - Wind Chill Wind Chill (CHILL): 41.0 °F
5-day plot - Wind Speed at 10 Meters Wind Speed at 10 meters (WSPD10M): 13.6 kts
5-day plot - Wind Speed at 20 Meters Wind Speed at 20 meters (WSPD20M): 13.6 kts
5-day plot -  Wind Speed, Wind Gust and Atmospheric Pressure Combined plot of Wind Speed, Gust, and Air Pressure
Supplemental Measurements
Lowest 1-minute Pressure
Time (AKDT)Pressure
7:40 pm29.86 in
Highest 1-minute Wind Speed
Time (AKDT)5-day plot - 1-Minute Wind Speed WSPD 5-day plot - 1-Minute Wind Direction WDIR
7:33 pm 13.6 ktsWSW ( 240 deg true )
Previous observations
TIME
(AKDT)
5-day plot - Wind Direction
WDIR
 
5-day plot - Wind Speed
WSPD
kts
5-day plot - Wind Gust
GST
kts
5-day plot - Wave Height
WVHT
ft
5-day plot - Dominant Wave Period
DPD
sec
5-day plot - Average Wave Period
APD
sec
5-day plot - Mean Wave Direction
MWD
 
5-day plot - Atmospheric Pressure
PRES
in
5-day plot - Pressure Tendency
PTDY
in
5-day plot - Air Temperature
ATMP
°F
5-day plot - Water Temperature
WTMP
°F
5-day plot - Dew Point
DEWP
°F
5-day plot - Salinity
SAL
psu
5-day plot - Visibility
VIS
nmi
5-day plot - Tide (above MLLW)
TIDE
ft
2024-05-23 07:30 pmWSW 11.7 13.6----29.86- 46.8 46.8 43.3---
2024-05-23 07:20 pmWSW 13.6 15.5 5.2 166.0SSW29.86- 46.8 46.8 43.3---
2024-05-23 07:10 pmWSW 11.7 13.6 5.2-6.0SSW29.86- 46.9 46.8 43.5---
2024-05-23 07:00 pmWSW 11.7 15.5----29.86+0.01 46.9 46.8 43.5---
2024-05-23 06:50 pmWSW 13.6 15.5 4.9 85.8 SW29.86- 46.9 46.8 43.3---
2024-05-23 06:40 pmWSW 11.7 15.5----29.85- 46.9 46.8 43.2---
2024-05-23 06:30 pmWSW 11.7 13.6----29.85- 46.9 46.8 43.3---
2024-05-23 06:20 pmWSW 11.7 13.6 4.6 75.8SSW29.85- 46.9 46.8 43.0---
2024-05-23 06:10 pmWSW 9.7 11.7 4.6-5.8SSW29.85- 46.9 46.8 43.3---
2024-05-23 06:00 pmWSW 9.7 11.7----29.85+0.00 46.8 46.8 43.5---
2024-05-23 05:50 pmWSW 9.7 11.7 4.6 165.7 S29.85- 46.8 46.8 43.5---
2024-05-23 05:40 pmWSW 9.7 11.7 4.6-5.7 S29.84- 46.8 46.8 43.5---
2024-05-23 05:30 pmWSW 11.7 13.6----29.85- 46.6 46.8 43.3---
2024-05-23 05:20 pmWSW 13.6 15.5 4.6 85.6SSW29.85- 46.6 46.8 43.5---
2024-05-23 05:10 pmWSW 13.6 17.5 4.6-5.6SSW29.85- 46.6 46.8 43.5---
2024-05-23 05:00 pmWSW 13.6 17.5----29.85+0.01 46.6 46.8 43.3---
2024-05-23 04:50 pmWSW 11.7 15.5 4.3 165.6 SW29.85- 46.8 46.8 43.2---
2024-05-23 04:40 pmWSW 11.7 13.6----29.85- 46.8 46.8 42.8---
2024-05-23 04:30 pmWSW 11.7 13.6----29.85- 46.8 46.8 42.6---
2024-05-23 04:20 pmWSW 11.7 13.6 4.9 85.7SSW29.85- 46.8 46.8 42.3---
2024-05-23 04:10 pmWSW 11.7 13.6 4.9-5.7SSW29.85- 46.8 46.8 42.6---
2024-05-23 04:00 pmWSW 9.7 11.7----29.85+0.01 46.8 46.6 42.6---
2024-05-23 03:50 pmWSW 11.7 13.6 4.9 175.7SSW29.85- 46.9 46.8 42.4---
2024-05-23 03:40 pmWSW 11.7 13.6----29.85- 46.8 46.6 42.4---
2024-05-23 03:10 pm W 9.7 11.7 4.9-5.6 SW29.85- 46.8 46.6 41.2---
2024-05-23 03:00 pmWSW 11.7 13.6----29.85+0.01 46.4 46.6 41.4---
2024-05-23 02:50 pmWSW 9.7 11.7 5.2 86.0 SW29.85- 46.4 46.6 41.5---
2024-05-23 02:40 pmWSW 9.7 11.7 5.2-6.0 SW29.85- 46.4 46.8 41.0---
2024-05-23 02:30 pmWSW 9.7 11.7----29.85- 46.4 46.8 40.8---
2024-05-23 02:20 pmWSW 7.8 11.7 4.9 75.8 SW29.85- 46.2 46.6 40.6---
2024-05-23 02:10 pmWSW 9.7 11.7 4.9-5.8 SW29.85- 46.2 46.6 40.3---
2024-05-23 02:00 pmWSW 9.7 11.7----29.85+0.00 46.2 46.6 40.3---
2024-05-23 01:50 pmWSW 9.7 11.7 5.2 66.0 SW29.84- 46.0 46.6 39.9---
2024-05-23 01:40 pmWSW 9.7 11.7 5.2-6.0 SW29.85- 45.9 46.6 40.1---
2024-05-23 01:30 pmWSW 9.7 11.7----29.85- 45.7 46.4 40.5---
2024-05-23 01:20 pmWSW 9.7 11.7 5.6 76.2 SW29.85- 45.7 46.4 41.5---
2024-05-23 01:10 pmWSW 9.7 11.7 5.6-6.2 SW29.85- 45.7 46.4 41.7---
2024-05-23 01:00 pm W 9.7 11.7----29.84+0.01 45.7 46.4 41.5---
2024-05-23 12:50 pmWSW 7.8 11.7 5.2 76.3 SW29.84- 45.7 46.2 41.2---
2024-05-23 12:40 pmWSW 7.8 9.7----29.84- 45.7 46.2 41.2---
2024-05-23 12:30 pm W 7.8 9.7----29.84- 45.3 46.2 40.6---
2024-05-23 12:20 pm W 7.8 7.8 5.2 76.1SSW29.84- 45.3 46.2 40.8---
2024-05-23 12:10 pm W 7.8 7.8 5.2-6.1SSW29.84- 45.1 46.0 40.6---
2024-05-23 12:00 pm W 7.8 9.7----29.84+0.02 45.1 46.0 40.6---
2024-05-23 11:50 am W 7.8 11.7 4.9 76.0 SW29.84- 45.0 46.0 40.8---
2024-05-23 11:40 am W 9.7 11.7 4.9-6.0 SW29.84- 44.8 46.0 41.0---
2024-05-23 11:30 am W 9.7 11.7----29.84- 44.8 46.0 41.4---
2024-05-23 11:20 am W 9.7 11.7 4.9 76.2 SW29.84- 44.6 46.0 41.4---
2024-05-23 11:10 am W 9.7 11.7 4.9-6.2 SW29.84- 44.8 45.9 41.4---
2024-05-23 11:00 am W 9.7 11.7----29.84+0.03 44.8 45.9 41.4---
2024-05-23 10:50 am W 9.7 11.7 5.6 76.3SSW29.84- 44.6 45.9 41.4---
2024-05-23 10:40 amWNW 7.8 9.7 5.6-6.3SSW29.84- 44.6 45.9 41.2---
2024-05-23 10:30 amWNW 9.7 11.7----29.84- 44.4 45.9 41.5---
2024-05-23 10:20 amWNW 9.7 11.7 4.9 75.9SSW29.83- 44.2 45.9 41.7---
2024-05-23 10:10 amWNW 9.7 11.7 4.9-5.9SSW29.83- 44.6 45.9 42.3---
2024-05-23 10:00 amWNW 9.7 11.7----29.83+0.01 44.6 45.9 41.7---
2024-05-23 09:50 am NW 9.7 11.7 4.9 65.8 S29.83- 44.6 45.9 41.4---
2024-05-23 09:40 am NW 9.7 9.7----29.83- 44.6 45.9 41.5---
2024-05-23 09:30 am NW 7.8 9.7----29.82- 44.4 45.9 41.2---
2024-05-23 09:20 amNNW 9.7 11.7 5.2 76.0 S29.82- 44.4 45.7 41.2---
2024-05-23 09:10 amNNW 9.7 11.7 5.2-6.0 S29.82- 44.4 45.7 41.4---
2024-05-23 09:00 amNNW 9.7 13.6----29.82+0.01 44.2 45.5 41.0---
2024-05-23 08:50 amNNW 11.7 13.6 4.9 75.7 S29.82- 44.2 45.5 41.0---
2024-05-23 08:40 amNNW 11.7 15.5 4.9-5.7 S29.82- 44.2 45.5 41.0---
2024-05-23 08:30 amNNW 11.7 15.5----29.82- 44.2 45.3 40.8---
2024-05-23 08:20 amNNW 11.7 13.6 4.6 175.8 S29.82- 44.2 45.3 41.2---
2024-05-23 08:10 amNNW 9.7 11.7 4.6-5.8 S29.82- 44.2 45.3 41.2---
2024-05-23 08:00 amNNW 9.7 11.7----29.81+0.01 44.1 45.3 41.4---
2024-05-23 07:50 amNNW 9.7 13.6 4.9 75.6 S29.81- 44.1 45.3 41.2---
2024-05-23 07:40 amNNW 9.7 11.7 4.9-5.6 S29.81- 44.1 45.3 41.2---
2024-05-23 07:30 amNNW 9.7 11.7----29.81- 44.1 45.3 41.4---
2024-05-23 07:20 amNNW 11.7 13.6 4.6 75.5SSW29.81- 44.2 45.3 41.4---
2024-05-23 07:10 amNNW 11.7 13.6 4.6-5.5SSW29.81- 44.2 45.3 41.2---
2024-05-23 07:00 amNNW 11.7 13.6----29.81+0.02 44.4 45.3 41.2---
2024-05-23 06:50 amNNW 13.6 15.5 4.9 75.3SSE29.81- 44.2 45.5 40.8---
2024-05-23 06:40 amNNW 13.6 15.5 4.9-5.3SSE29.81- 44.4 45.5 41.4---
2024-05-23 06:30 amNNW 11.7 15.5----29.81- 44.4 45.5 41.5---
2024-05-23 06:20 amNNW 13.6 15.5 4.9 75.4 S29.80- 44.2 45.5 41.4---
2024-05-23 06:10 amNNW 13.6 15.5 4.9-5.4 S29.80- 44.2 45.5 41.7---
2024-05-23 06:00 amNNW 13.6 15.5----29.80+0.01 44.2 45.7 41.7---
2024-05-23 05:50 amNNW 11.7 15.5 4.6 74.9 S29.80- 44.1 45.7 41.9---
2024-05-23 05:40 amNNW 13.6 15.5----29.80- 43.7 45.7 42.4---
2024-05-23 05:30 amNNW 13.6 17.5----29.80- 43.7 45.7 42.4---
2024-05-23 05:20 am NW 15.5 19.4 4.6 75.0 SE29.80- 43.9 45.7 41.9---
2024-05-23 05:10 am NW 15.5 19.4 4.6-5.0 SE29.79- 44.1 45.7 42.1---
2024-05-23 05:00 am NW 15.5 19.4----29.79+0.00 43.9 45.7 41.7---
2024-05-23 04:50 am NW 17.5 19.4 4.6 75.0 SE29.79- 43.7 45.7 41.7---
2024-05-23 04:40 am NW 17.5 21.4----29.79- 43.5 45.7 41.9---
2024-05-23 04:30 am NW 15.5 19.4----29.79- 43.3 45.5 42.8---
2024-05-23 04:20 amWNW 15.5 19.4 4.9 175.8SSW29.79- 43.0 45.5 42.8---
2024-05-23 04:10 amWNW 15.5 19.4 4.9-5.8SSW29.79- 43.0 45.5 42.6---
2024-05-23 04:00 amWNW 15.5 19.4----29.79+0.00 43.0 45.5 42.4---
2024-05-23 03:50 amWNW 13.6 17.5 4.6 75.6ESE29.79- 42.8 45.7 42.4---
2024-05-23 03:40 amWNW 11.7 15.5----29.79- 43.0 45.7 42.1---
2024-05-23 03:30 amWNW 11.7 15.5----29.79- 43.2 45.7 41.5---
2024-05-23 03:20 am W 13.6 15.5 4.3 75.7ESE29.79- 43.2 45.7 41.7---
2024-05-23 03:10 am W 11.7 13.6 4.3-5.7ESE29.79- 43.0 45.7 41.4---
2024-05-23 03:00 am W 9.7 13.6----29.79-0.01 42.8 45.7 41.5---
2024-05-23 02:50 am W 9.7 11.7 4.6 75.9 SE29.80- 42.6 45.9 41.7---
2024-05-23 02:40 amWNW 9.7 13.6 4.6-5.9 SE29.80- 42.8 45.9 41.0---
2024-05-23 02:30 am W 11.7 13.6----29.80- 43.0 45.9 40.1---
2024-05-23 02:20 am W 9.7 13.6 4.6 95.9SSW29.80- 43.2 45.9 40.6---
2024-05-23 02:10 am W 9.7 11.7 4.6-5.9SSW29.80- 43.3 45.9 40.6---
2024-05-23 02:00 am W 7.8 9.7----29.80-0.02 43.3 45.9 40.6---
2024-05-23 01:50 amWNW 9.7 11.7 4.9 76.0ESE29.80- 43.2 45.9 39.7---
2024-05-23 01:40 am W 9.7 11.7 4.9-6.0ESE29.80- 43.2 45.9 39.4---
2024-05-23 01:30 am W 9.7 11.7----29.80- 43.3 45.9 39.2---
2024-05-23 01:20 am W 7.8 9.7 4.9 76.2ESE29.80- 43.3 45.9 39.6---
2024-05-23 01:10 am W 9.7 11.7 4.9-6.2ESE29.80- 43.3 45.9 39.9---
2024-05-23 01:00 amWNW 7.8 11.7----29.80-0.02 43.2 45.9 39.9---
2024-05-23 12:50 amWNW 7.8 9.7 5.2 76.1ESE29.80- 43.0 45.9 40.1---
2024-05-23 12:40 amWNW 7.8 9.7 5.2-6.1ESE29.80- 43.0 45.9 40.5---
2024-05-23 12:30 amWNW 7.8 9.7----29.80- 43.0 45.7 40.6---
2024-05-23 12:20 amWNW 7.8 9.7 4.6 76.1ESE29.81- 43.0 45.5 41.0---
2024-05-23 12:10 amWNW 7.8 9.7 4.6-6.1ESE29.81- 43.0 45.5 41.2---
2024-05-23 12:00 amWNW 7.8 9.7----29.81-0.01 43.5 45.7 41.4---
2024-05-22 11:50 pm W 7.8 9.7 4.6 76.4ESE29.80- 43.7 45.5 40.1---
2024-05-22 11:40 pm W 5.8 7.8 4.6-6.4ESE29.80- 43.7 45.5 39.4---
2024-05-22 11:30 pm W 5.8 7.8----29.81- 43.7 45.5 39.4---
2024-05-22 11:20 pm W 5.8 7.8 4.9 76.3ESE29.81- 43.7- 39.6---
2024-05-22 11:10 pm W 5.8 7.8 4.9-6.3ESE29.81- 43.7 45.7 39.4---
2024-05-22 11:00 pm W 5.8 7.8----29.81-0.02 43.7 45.7 39.4---
2024-05-22 10:50 pmWSW 3.9 5.8 4.9 76.2ESE29.82- 43.7 45.7 39.9---
2024-05-22 10:40 pmWSW 3.9 5.8 4.9-6.2ESE29.81- 43.7 45.5 40.1---
2024-05-22 10:30 pm SW 5.8 5.8----29.82- 43.5 45.5 40.1---
2024-05-22 10:20 pm SW 3.9 5.8 4.9 76.0ESE29.82- 43.5 45.5 40.3---
2024-05-22 10:10 pm SW 5.8 5.8 4.9-6.0ESE29.82- 43.5 45.5 40.3---
2024-05-22 10:00 pm SW 5.8 5.8----29.82-0.02 43.5 45.5 40.1---
2024-05-22 09:50 pm SW 5.8 5.8 4.6 75.9 E29.82- 43.3 45.7 39.9---
2024-05-22 09:40 pm SW 5.8 7.8----29.82- 43.3 45.7 40.1---
2024-05-22 09:30 pmWSW 3.9 5.8----29.82- 43.3 45.7 40.1---
2024-05-22 09:20 pm SW 3.9 5.8 5.2 75.9 E29.82- 43.2 45.5 40.1---
2024-05-22 09:10 pm SW 3.9 5.8 5.2-5.9 E29.82- 43.2 45.5 40.5---
2024-05-22 09:00 pm SW 3.9 3.9----29.82-0.02 43.2 45.5 40.6---
2024-05-22 08:50 pm SW 3.9 3.9 5.6 75.9 E29.82- 43.2 45.5 41.0---
2024-05-22 08:40 pm SW 3.9 5.8 5.6-5.9 E29.83- 43.2 45.5 41.0---
2024-05-22 08:30 pm SW 3.9 5.8----29.83- 43.2 45.5 40.8---
2024-05-22 08:20 pm SW 3.9 3.9 5.2 65.8 E29.83- 43.3 45.5 41.2---
2024-05-22 08:10 pm SW 3.9 5.8 5.2-5.8 E29.83- 43.2 45.5 40.8---
2024-05-22 08:00 pm SW 3.9 5.8----29.83-0.01 43.2 45.5 40.8---
2024-05-22 07:50 pm SW 3.9 5.8 5.6 75.8 E29.83- 43.2 45.5 40.6---

Detailed Wave Summary
for 46076 as of
(7:10 pm AKDT on 05/23/2024)
0310 GMT on 05/24/2024:

These wave data are displayed in rounded times.

     

Click on the graph icon in the table below to see a time series plot of the last five days of that observation.

5-day plot - Significant Wave Height Significant Wave Height (WVHT): 5.2 ft
5-day plot - Swell Height Swell Height (SwH): 4.6 ft
5-day plot - Swell Period Swell Period (SwP): 16.0 sec
5-day plot - Swell Direction Swell Direction (SwD):SSW
5-day plot - Wind Wave Height Wind Wave Height (WWH): 3.0 ft
5-day plot - Wind Wave Period Wind Wave Period (WWP): 5.9 sec
5-day plot - Wind Wave Direction Wind Wave Direction (WWD): SW
5-day plot - Wave Steepness Wave Steepness (STEEPNESS): SWELL
5-day plot - Average Wave Period Average Wave Period (APD): 6.0 sec
Previous observations
TIME
(AKDT)
5-day plot - Wave Height
WVHT
ft
5-day plot - Swell Height
SwH
ft
5-day plot - Swell Period
SwP
sec
5-day plot - Swell Direction
SwD
 
5-day plot - Wind Wave Height
WWH
ft
5-day plot - Wind Wave Period
WWP
sec
5-day plot - Wind Wave Direction
WWD
 
5-day plot - Wave Steepness
STEEPNESS
 
5-day plot - Average Wave Period
APD
sec
2024-05-23 06:40 pm 4.9 4.3 7.7 SW 2.6 4.8 SW AVERAGE 5.8
2024-05-23 06:10 pm 4.6 4.3 7.1SSW 2.3 5.0 SW STEEP 5.8
2024-05-23 05:40 pm 4.6 4.3 16.0 S 2.0 4.3 WSW SWELL 5.7
2024-05-23 05:10 pm 4.6 3.6 8.3SSW 3.0 6.2 SW AVERAGE 5.6
2024-05-23 04:40 pm 4.3 3.6 16.0 SW 2.3 5.3 SW SWELL 5.6
2024-05-23 04:10 pm 4.9 4.3 8.3SSW 2.6 5.3 WSW AVERAGE 5.7
2024-05-23 03:40 pm 4.9 4.3 17.4SSW 2.3 5.0 WSW SWELL 5.7
2024-05-23 03:10 pm 4.9 4.3 6.7 SW 2.3 4.5 WSW STEEP 5.6
2024-05-23 02:40 pm 5.2 4.6 7.7 SW 2.3 4.8 WSW AVERAGE 6.0
2024-05-23 02:10 pm 4.9 4.6 6.7 SW 1.6 4.3 WSW STEEP 5.8
2024-05-23 01:40 pm 5.2 4.9 6.2 SW 2.0 4.3 SW STEEP 6.0
2024-05-23 01:10 pm 5.6 5.2 7.1 SW 2.0 4.2 WSW STEEP 6.2
2024-05-23 12:40 pm 5.2 5.2 6.7 SW 1.3 3.8 W STEEP 6.3
2024-05-23 12:10 pm 5.2 5.2 6.7SSW 1.3 3.3 W STEEP 6.1
2024-05-23 11:40 am 4.9 4.6 6.7 SW 1.6 4.5 SW STEEP 6.0
2024-05-23 11:10 am 4.9 4.6 7.1 SW 1.6 4.5 SW STEEP 6.2
2024-05-23 10:40 am 5.6 5.6 7.1SSW 1.3 4.0 WSW STEEP 6.3
2024-05-23 10:10 am 4.9 4.6 6.7SSW 1.6 3.6 W STEEP 5.9
2024-05-23 09:40 am 4.9 4.6 6.2 S 2.0 4.3 SE STEEP 5.8
2024-05-23 09:10 am 5.2 4.9 7.1 S 2.0 4.5 SW STEEP 6.0
2024-05-23 08:40 am 4.9 3.9 6.7 S 3.0 5.3 E STEEP 5.7
2024-05-23 08:10 am 4.6 3.9 17.4 S 2.3 5.0 ESE SWELL 5.8
2024-05-23 07:40 am 4.9 4.3 6.7 S 2.3 4.0 WNW STEEP 5.6
2024-05-23 07:10 am 4.6 3.9 6.7SSW 2.6 5.0 SE STEEP 5.5
2024-05-23 06:40 am 4.9 3.3 6.7SSE 3.3 4.3 WSW STEEP 5.3
2024-05-23 06:10 am 4.9 3.6 6.7 S 3.3 3.7 NW STEEP 5.4
2024-05-23 05:40 am 4.6 3.0 6.7 S 3.3 4.0 NW STEEP 4.9
2024-05-23 05:10 am 4.6 3.0 6.7 SE 3.3 3.7 NW STEEP 5.0
2024-05-23 04:40 am 4.6 3.3 6.7 SE 3.3 3.4 WNW STEEP 5.0
2024-05-23 04:10 am 4.9 3.9 17.4SSW 3.0 5.6 SE SWELL 5.8
2024-05-23 03:40 am 4.6 3.9 7.1ESE 2.6 3.2 WNW STEEP 5.6
2024-05-23 03:10 am 4.3 3.6 7.1ESE 2.3 4.0 SW STEEP 5.7
2024-05-23 02:40 am 4.6 4.3 7.1 SE 2.0 4.5 S STEEP 5.9
2024-05-23 02:10 am 4.6 4.3 9.1SSW 2.3 4.5 S SWELL 5.9
2024-05-23 01:40 am 4.9 4.6 7.1ESE 2.0 3.8 WSW STEEP 6.0
2024-05-23 01:10 am 4.9 4.6 6.7ESE 1.3 3.8 ESE STEEP 6.2
2024-05-23 12:40 am 5.2 4.9 7.1ESE 1.3 4.0 SE STEEP 6.1
2024-05-23 12:10 am 4.6 4.3 7.1ESE 1.3 3.7 E STEEP 6.1
2024-05-22 11:40 pm 4.6 4.6 6.7ESE 1.3 4.0 E STEEP 6.4
2024-05-22 11:10 pm 4.9 4.6 6.7ESE 1.3 4.0 E STEEP 6.3
2024-05-22 10:40 pm 4.9 4.6 6.7ESE 1.3 3.8 ENE STEEP 6.2
2024-05-22 10:10 pm 4.9 4.9 7.1ESE 1.3 3.7 E STEEP 6.0
2024-05-22 09:40 pm 4.6 4.6 6.7 E 1.3 3.7 ESE STEEP 5.9
2024-05-22 09:10 pm 5.2 4.9 6.7 E 1.6 3.7 ESE STEEP 5.9
2024-05-22 08:40 pm 5.6 5.2 6.7 E 1.6 4.0 ESE STEEP 5.9
2024-05-22 08:10 pm 5.2 4.9 6.2 E 1.6 3.8 NE STEEP 5.8

Plot of wave energy versus frequency (and period)